This is the latest recevied weather packets stored in our database for station/object SV2BZQ-2. If no packets are shown the sender has not sent any weather packets the latest 10 day(s).
| Time | Temp. | Humidity | Pressure | Rain* | Wind** | Luminosity | Snow |
|---|---|---|---|---|---|---|---|
| 1777557878 | 13.89° C | 73% | 1013.8 hPa | 0 mm | - | 65 W/m² | - |
| 1777557778 | 13.89° C | 72% | 1013.8 hPa | 0 mm | - | 69 W/m² | - |
| 1777557626 | 13.89° C | 72% | 1013.7 hPa | 0 mm | - | 77 W/m² | - |
| 1777557536 | 14.44° C | 72% | 1013.5 hPa | 0 mm | - | 88 W/m² | - |
| 1777557395 | 14.44° C | 72% | 1013.6 hPa | 0 mm | - | 93 W/m² | - |
| 1777557316 | 14.44° C | 72% | 1013.3 hPa | 0 mm | - | 104 W/m² | - |
| 1777557218 | 14.44° C | 72% | 1013.3 hPa | 0 mm | - | 134 W/m² | - |
| 1777556988 | 15° C | 72% | 1013.2 hPa | 0 mm | - | 165 W/m² | - |
| 1777556889 | 15° C | 71% | 1013.2 hPa | 0 mm | - | 163 W/m² | - |
| 1777556731 | 15° C | 71% | 1013.2 hPa | 0 mm | - | 165 W/m² | - |
| 1777556623 | 15° C | 71% | 1013 hPa | 0 mm | - | 165 W/m² | - |
| 1777556518 | 15.56° C | 71% | 1013.1 hPa | 0 mm | - | 160 W/m² | - |
| 1777556415 | 15.56° C | 70% | 1013.4 hPa | 0 mm | - | 156 W/m² | - |
| 1777556296 | 15.56° C | 70% | 1013.1 hPa | 0 mm | - | 160 W/m² | - |
| 1777556049 | 16.11° C | 69% | 1013.3 hPa | 0 mm | - | 172 W/m² | - |
| 1777555907 | 16.11° C | 68% | 1013.4 hPa | 0 mm | - | 181 W/m² | - |
| 1777555795 | 16.67° C | 68% | 1013.3 hPa | 0 mm | - | 188 W/m² | - |
| 1777555706 | 16.67° C | 68% | 1013.3 hPa | 0 mm | - | 202 W/m² | - |
| 1777555601 | 16.67° C | 68% | 1013.3 hPa | 0 mm | - | 204 W/m² | - |
| 1777555523 | 16.67° C | 67% | 1013.1 hPa | 0 mm | - | 216 W/m² | - |
| 1777555393 | 17.22° C | 67% | 1013.1 hPa | 0 mm | - | 218 W/m² | - |
| 1777555308 | 17.22° C | 67% | 1012.9 hPa | 0 mm | - | 225 W/m² | - |
| 1777555232 | 17.22° C | 67% | 1013 hPa | 0 mm | - | 425 W/m² | - |
| 1777555126 | 17.22° C | 67% | 1013.1 hPa | 0 mm | - | 413 W/m² | - |
| 1777555007 | 17.22° C | 67% | 1012.9 hPa | 0 mm | - | 378 W/m² | - |
* Rain latest hour (hover to see other rain measurements)
** Current wind speed in m/s (hover to see current wind gust speed)